This demonstration page uses our WeatherBlox Daily Observations layout. Learn more.

Left ArrowRight Arrow

Hourly Observations for June 8, 2016

Temp ( °F °C ) Dew Point ( °F °C ) Humidity (%) Winds ( mph kmh ) Pressure ( in mb ) Visibility ( mi km ) Precip ( " mm )
12:54 am 00:54 Clear 67 19.4 53 11.7 61 61 SSE 5 7 29.91 1013 10 16.0934 0 0
1:54 am 01:54 Clear 65 18.3 52 11.1 63 63 Calm 29.91 1013 10 16.0934 0 0
2:54 am 02:54 Clear 60 15.6 54 12.2 80 80 N 3 6 29.91 1013 10 16.0934 0 0
3:54 am 03:54 Clear 61 16.1 54 12.2 78 78 Calm 29.91 1013 10 16.0934 0 0
4:54 am 04:54 Clear 64 17.8 53 11.7 68 68 Calm 29.91 1013 10 16.0934 0 0
5:54 am 05:54 Mostly Cloudy 62 16.7 54 12.2 75 75 Calm 29.9 1013 10 16.0934 0 0
6:54 am 06:54 Sunny 64 17.8 54 12.2 70 70 SSE 3 6 29.91 1013 10 16.0934 0 0
7:54 am 07:54 Sunny 70 21.1 56 13.3 61 61 SSE 10 17 29.9 1012 10 16.0934 0 0
8:54 am 08:54 Mostly Sunny 76 24.4 56 13.3 50 50 SSE 14 22 29.89 1012 10 16.0934 0 0
9:54 am 09:54 Sunny 79 26.1 58 14.4 49 49 S 18 30 29.88 1012 10 16.0934 0 0
10:54 am 10:54 Sunny 82 27.8 59 15 46 46 SSE 16 26 29.86 1011 10 16.0934 0 0
11:54 am 11:54 Mostly Sunny 84 28.9 61 16.1 46 46 SE 16 26 29.85 1011 10 16.0934 0 0
12:54 pm 12:54 Sunny 87 30.6 61 16.1 42 42 S 13 20 29.85 1011 10 16.0934 0 0
1:54 pm 13:54 Sunny 90 32.2 60 15.6 37 37 SSE 16 26 29.83 1010 10 16.0934 0 0
2:54 pm 14:54 Sunny 91 32.8 59 15 34 34 S 17 28 29.8 1009 10 16.0934 0 0
3:54 pm 15:54 Sunny 92 33.3 60 15.6 34 34 S 21 33 29.79 1009 10 16.0934 0 0
4:54 pm 16:54 Sunny 91 32.8 60 15.6 35 35 S 23 37 29.76 1008 10 16.0934 0 0
5:54 pm 17:54 Sunny 91 32.8 62 16.7 38 38 S 21 33 29.75 1008 10 16.0934 0 0
6:54 pm 18:54 Sunny 89 31.7 63 17.2 42 42 S 17 28 29.75 1008 10 16.0934 0 0
7:54 pm 19:54 Sunny 87 30.6 63 17.2 45 45 S 15 24 29.75 1007 10 16.0934 0 0
8:54 pm 20:54 Sunny 84 28.9 64 17.8 51 51 SSE 12 19 29.75 1007 10 16.0934 0 0
9:54 pm 21:54 Clear 83 28.3 65 18.3 55 55 SSE 14 22 29.74 1007 10 16.0934 0 0
10:54 pm 22:54 Clear 80 26.7 65 18.3 60 60 SSE 12 19 29.77 1008 10 16.0934 0 0
11:54 pm 23:54 Clear 78 25.6 65 18.3 64 64 SSE 9 15 29.77 1008 10 16.0934 0 0

Powered by AerisWeather